Regional Weather Roundup
Issued by NWS

Home | Current Version | Previous Version | Graphics & Text | Print | Product List | Glossary On
Versions: 1 2 3 4 5 6 7 8 9 10 11 12 13 14 15 16 17 18 19 20 21 22 23 24 25 26 27 28 29 30 31 32 33 34 35 36 37 38 39 40 41 42 43 44 45 46 47 48 49 50
000
ASUS43 KDMX 210301
RWRIA

WEATHER ROUNDUP FOR IOWA
NATIONAL WEATHER SERVICE DES MOINES IA
1000 PM CDT SUN MAY 20 2018

NOTE: "FAIR" INDICATES FEW OR NO CLOUDS BELOW 12,000 FEET WITH NO
SIGNIFICANT WEATHER AND/OR OBSTRUCTIONS TO VISIBILITY.

* - THESE STATIONS ARE NOT NWS STATIONS...THUS NOT UNDER NWS
QUALITY CONTROL.  THEY ALSO DO NOT REPORT WEATHER SUCH
AS PRECIPITATION OR FOG.

IAZ001>003-012>014-020>022-031>034-043>046-210400-
   NORTHWEST IOWA

CITY           SKY/WX    TMP DP  RH WIND       PRES   REMARKS
CARROLL *      CLOUDY   N/A N/A N/A E9        30.08R HAZE
CHEROKEE *     DRIZZLE   55  55 100 CALM      30.10S
DENISON *      CLOUDY    59  59 100 NE5       30.09R FOG
LE MARS *      CLOUDY    57  55  94 NE5       30.09F FOG
ORANGE CITY *  RAIN      57  55  94 E5        30.10S
SHELDON *        N/A     55  55 100 E7        30.09S
SIOUX CITY     CLOUDY    54  53  97 N6        30.09S
SPENCER        LGT RAIN  56  54  93 E3        30.12R FOG
STORM LAKE *   PTCLDY    55  55 100 E12       30.10S FOG
$$

IAZ055>058-069>071-079>083-090>094-210400-
   SOUTHWEST IOWA

CITY           SKY/WX    TMP DP  RH WIND       PRES   REMARKS
ATLANTIC *     CLOUDY    63  61  94 NE6       30.07R
AUDUBON *      CLOUDY    61  57  88 E6        30.09R FOG
CLARINDA *       N/A     66  63  88 E6        30.06S
COUNCIL BLFS * CLOUDY    57  57 100 NW3       30.06R
CRESTON *      CLOUDY    63  61  94 NE7       30.08R
HARLAN  *      CLOUDY    61  61 100 E9        30.09S
LAMONI         LGT RAIN  65  63  93 N6        30.04S FOG
RED OAK *      CLOUDY    66  61  82 VRB6      30.05S
SHENANDOAH *   CLOUDY    66  63  88 SE5       30.05R
$$

IAZ047>049-059>061-072>074-084-210400-
   CENTRAL IOWA

CITY           SKY/WX    TMP DP  RH WIND       PRES   REMARKS
AMES           CLOUDY    58  55  90 E9        30.10R
ANKENY *       CLOUDY    59  55  88 E8        30.10R
BOONE *        CLOUDY    57  55  94 E12       30.09R
CHARITON *     CLOUDY    63  59  88 E10       30.07R
DES MOINES     CLOUDY    62  56  80 E6        30.08R
GRINNELL*      CLOUDY    57  54  88 E13       30.11R FOG
KNOXVILLE *    CLOUDY    61  55  82 E10G16    30.07R
MARSHALLTOWN   CLOUDY    56  55  97 E13       30.10R
NEWTON *       CLOUDY    59  55  88 E12       30.09R
PELLA *        CLOUDY    60  55  83 E6        30.09R
PERRY *        CLOUDY    60  58  94 E6        30.09R
$$

IAZ004>006-015-016-023>025-035-036-210400-
   NORTH CENTRAL IOWA

CITY           SKY/WX    TMP DP  RH WIND       PRES   REMARKS
ALGONA *       CLOUDY    59  54  82 SE6       30.12R
CLARION *      CLOUDY    57  52  82 E9        30.12R
ESTHERVILLE    CLOUDY    56  53  90 E8        30.11S
FORT DODGE *   CLOUDY    58  55  90 E9        30.11R
MASON CITY     CLOUDY    56  51  84 E7        30.14R
FOREST CITY *  CLOUDY    57  52  82 E5        30.12S
WEBSTER CITY * CLOUDY    57  55  94 E12       30.09R
IOWA FALLS *   CLOUDY    57  54  89 E10       30.12S
$$

IAZ007>011-017>019-026>030-037>042-050>054-066-210400-
   NORTHEAST IOWA

CITY           SKY/WX    TMP DP  RH WIND       PRES   REMARKS
CEDAR RAPIDS   CLOUDY    57  55  93 E13       30.11S
CHARLES CITY * CLOUDY    55  52  88 E10       30.14R
CLINTON *      CLOUDY    58  54  86 E12       30.15R
DECORAH *      CLOUDY    55  52  88 SE5       30.15R
DUBUQUE        CLOUDY    56  53  90 E8        30.16R
MONTICELLO *   CLOUDY    57  55  94 E9        30.13S
OELWEIN *      CLOUDY    55  54  94 E10       30.14S
WATERLOO       CLOUDY    56  54  93 E10       30.12R
$$

IAZ064-065-067-068-078-210400-
   EAST CENTRAL IOWA

CITY           SKY/WX    TMP DP  RH WIND       PRES   REMARKS
DAVENPORT      CLOUDY    58  53  84 E14       30.14R
IOWA CITY      CLOUDY    59  54  83 NE8       30.12R
MUSCATINE *    MOCLDY    63  55  77 NE9       30.11S
QUAD CITIES    MOCLDY    61  54  77 E17       30.11R
$$

IAZ062-063-075>077-085>089-095>099-210400-
   SOUTHEAST IOWA

CITY           SKY/WX    TMP DP  RH WIND       PRES   REMARKS
BURLINGTON     CLOUDY    63  56  78 E8        30.08R
FAIRFIELD *    CLOUDY    64  57  77 E12       30.08R
FORT MADISON * CLOUDY    64  57  77 E8        30.09R
KEOKUK *       CLOUDY    66  57  72 E8G17     30.07R
OSKALOOSA *    CLOUDY    61  57  87 E8        30.09R
CENTERVILLE *    N/A     66  66 100 E13       30.06S
OTTUMWA        CLOUDY    64  56  75 E13       30.07R
WASHINGTON *   MOCLDY    61  59  94 NE12      30.10R
$$

ABBREVIATIONS USED IN REMARKS
   TC - TEMPERATURES IN CELSIUS
  WCI - WIND CHILL INDEX
   HX - HEAT INDEX
  VSB - VISIBILITY
$$





USA.gov is the U.S. government's official web portal to all federal, state and local government web resources and services.